Hofstra University South Campus NY US WEATHERSTEM current weather conditions

sailwx.info

Wind from 324 at 4 knots gusting 12

Air temperature -1.1° C
Dewpoint -16.1° C

Last reported at 2020-Jan-20 22:00 UTC.
Time now 2020-Jan-20 22:58 UTC

Location: N 40°43' W 073°36'.
View on Google Maps.

See reports from other nearby stations

  
Tides and Currents Weather Stations Pressure Air Temp Water Temp Dewpoint Dewpoint Depression Visibility Wind Speed Wind Dir Waves Ship Positions
date/time (UTC)wind fromknots sea level pressurealtimeterstation pressurevisibilityair tempwater tempwave heightnotes
2020-Jan-20 22:00 324 4 gusting 12 -1.1
2020-Jan-20 21:50 317 3 gusting 13 -1.0
2020-Jan-20 21:40 330 7 gusting 13 -0.9
2020-Jan-20 21:30 330 9 gusting 13 -0.9
2020-Jan-20 21:20 013 6 gusting 19 -0.9
2020-Jan-20 21:10 360 3 gusting 14 -0.9
2020-Jan-20 21:00 360 12 gusting 14 -0.9
2020-Jan-20 20:40 319 5 gusting 13 -0.8
2020-Jan-20 20:30 337 9 gusting 18 -0.9
2020-Jan-20 20:20 028 7 gusting 14 -0.9
2020-Jan-20 20:10 033 8 gusting 18 -1.2
2020-Jan-20 20:00 322 16 gusting 18 -1.3
2020-Jan-20 19:50 311 6 gusting 18 -1.4
2020-Jan-20 19:30 273 5 gusting 16 -1.2
2020-Jan-20 19:20 025 9 gusting 18 -1.6
2020-Jan-20 19:10 302 16 gusting 19 -1.8
2020-Jan-20 19:00 307 12 gusting 19 -1.8
2020-Jan-20 18:50 315 9 gusting 19 -2.1
2020-Jan-20 18:40 009 12 gusting 21 -2.2
2020-Jan-20 18:30 323 9 gusting 19 -2.2
2020-Jan-20 18:20 316 17 gusting 21 -2.2
2020-Jan-20 18:10 333 8 gusting 16 -2.3
2020-Jan-20 18:00 327 18 gusting 19 -2.6
2020-Jan-20 17:40 302 10 gusting 21 -2.6
2020-Jan-20 17:30 346 11 gusting 19 -2.8
2020-Jan-20 17:20 296 11 gusting 18 -2.8
2020-Jan-20 17:10 350 8 gusting 19 -2.8
2020-Jan-20 17:00 355 8 gusting 19 -3.1
2020-Jan-20 16:50 310 8 gusting 18 -3.3
2020-Jan-20 16:40 349 7 gusting 21 -3.5
2020-Jan-20 16:30 348 12 gusting 19 -3.8
2020-Jan-20 16:20 315 13 gusting 18 -3.8
2020-Jan-20 16:10 355 11 gusting 18 -3.8
2020-Jan-20 16:00 331 5 gusting 17 -4.2
2020-Jan-20 15:50 021 4 gusting 22 -4.2
2020-Jan-20 15:40 315 6 gusting 13 -4.2
2020-Jan-20 15:30 342 2 gusting 17 -4.5
2020-Jan-20 15:20 321 11 gusting 17 -4.8
2020-Jan-20 15:10 325 8 gusting 19 -5.0
2020-Jan-20 15:00 360 7 gusting 21 -5.2
2020-Jan-20 14:50 013 8 gusting 21 -5.2
2020-Jan-20 14:40 344 14 gusting 22 -5.3
2020-Jan-20 14:30 317 8 gusting 20 -5.5
2020-Jan-20 14:20 017 10 gusting 20 -5.7
2020-Jan-20 14:10 355 10 gusting 19 -5.6
2020-Jan-20 14:00 315 8 gusting 17 -5.7
2020-Jan-20 13:50 342 16 gusting 17 -5.8
2020-Jan-20 13:40 306 9 gusting 16 -5.9
2020-Jan-20 13:30 355 11 gusting 13 -5.9
2020-Jan-20 13:20 349 8 gusting 17 -6.1
2020-Jan-20 13:10 355 10 gusting 18 -6.2
2020-Jan-20 13:00 018 4 gusting 16 -6.2
2020-Jan-20 12:40 013 4 gusting 15 -6.3
2020-Jan-20 12:30 328 11 gusting 20 -6.4
2020-Jan-20 12:20 360 9 gusting 18 -6.4
2020-Jan-20 12:00 333 10 gusting 19 -6.4
2020-Jan-20 11:50 292 7 gusting 19 -6.3
2020-Jan-20 11:30 346 11 gusting 15 -6.2
2020-Jan-20 11:10 288 2 gusting 14 -6.1
2020-Jan-20 11:00 355 2 gusting 18 -6.1
2020-Jan-20 10:40 355 8 gusting 19 -6.0
2020-Jan-20 10:30 302 6 gusting 18 -6.0
2020-Jan-20 10:20 337 8 gusting 15 -5.9
2020-Jan-20 10:10 360 4 gusting 11 -5.8
2020-Jan-20 10:00 305 6 gusting 13 -5.8
2020-Jan-20 09:50 299 14 gusting 15 -5.7
2020-Jan-20 09:40 292 11 gusting 14 -5.7
2020-Jan-20 09:30 005 8 gusting 17 -5.7
2020-Jan-20 09:20 311 4 gusting 17 -5.6
2020-Jan-20 09:10 349 4 gusting 16 -5.4
2020-Jan-20 09:00 360 8 gusting 21 -5.4
2020-Jan-20 08:50 013 1 gusting 13 -5.3
2020-Jan-20 08:40 296 11 gusting 17 -5.2
2020-Jan-20 08:30 314 13 gusting 17 -4.9
2020-Jan-20 08:20 348 13 gusting 16 -4.7
2020-Jan-20 08:10 331 6 gusting 20 -4.6
2020-Jan-20 08:00 281 12 gusting 17 -4.4
2020-Jan-20 07:50 338 6 gusting 16 -4.2
2020-Jan-20 07:40 302 13 gusting 20 -4.1
2020-Jan-20 07:30 319 16 gusting 19 -4.0
2020-Jan-20 07:20 309 7 gusting 15 -3.8
2020-Jan-20 07:10 324 10 gusting 15 -3.6
2020-Jan-20 07:00 299 6 gusting 18 -3.6
2020-Jan-20 06:50 336 12 gusting 13 -3.5
2020-Jan-20 06:40 326 7 gusting 17 -3.4
2020-Jan-20 06:30 315 12 gusting 17 -3.3
2020-Jan-20 06:10 300 9 gusting 19 -3.1
2020-Jan-20 06:00 303 15 gusting 15 -2.9
2020-Jan-20 05:40 315 6 gusting 24 -2.6
2020-Jan-20 05:30 315 6 gusting 23 -2.4
2020-Jan-20 05:20 318 10 gusting 18 -2.2
2020-Jan-20 05:10 310 4 gusting 17 -1.9
2020-Jan-20 05:00 318 9 gusting 21 -1.8
2020-Jan-20 04:40 329 9 gusting 20 -1.2
2020-Jan-20 04:20 309 10 gusting 15 -0.3
2020-Jan-20 04:10 309 3 gusting 17 -0.2
2020-Jan-20 04:00 275 3 gusting 13 -0.2
2020-Jan-20 03:40 303 4 gusting 13 -0.1
2020-Jan-20 03:30 311 8 gusting 14 -0.0
2020-Jan-20 03:20 265 6 gusting 15 0.1
2020-Jan-20 03:10 286 6 gusting 16 0.2
2020-Jan-20 03:00 309 9 gusting 13 0.3
2020-Jan-20 02:40 304 7 gusting 16 0.5
2020-Jan-20 02:30 293 3 gusting 13 0.6
2020-Jan-20 02:20 258 9 gusting 16 0.7
2020-Jan-20 02:10 305 8 gusting 15 0.7
2020-Jan-20 02:00 313 7 gusting 17 0.8
2020-Jan-20 01:50 283 5 gusting 13 0.9
2020-Jan-20 01:40 229 2 gusting 13 0.9
2020-Jan-20 01:30 277 6 gusting 14 1.0
2020-Jan-20 01:20 292 3 gusting 13 1.2
2020-Jan-20 01:10 320 14 gusting 14 1.3
2020-Jan-20 01:00 270 2 gusting 13 1.3
2020-Jan-20 00:50 323 3 gusting 18 1.5
2020-Jan-20 00:30 294 10 gusting 19 1.8
2020-Jan-20 00:20 306 7 gusting 15 1.9
2020-Jan-20 00:10 300 6 gusting 16 2.1
2020-Jan-20 00:00 294 7 gusting 17 2.1
2020-Jan-19 23:50 275 12 gusting 17 2.2
2020-Jan-19 23:40 277 9 gusting 15 2.4
2020-Jan-19 23:30 346 15 gusting 16 2.4
2020-Jan-19 23:20 267 7 gusting 15 2.6
2020-Jan-19 23:10 333 5 gusting 12 2.8
2020-Jan-19 23:00 328 9 gusting 15 2.9
2020-Jan-19 22:50 319 12 gusting 17 3.1
2020-Jan-19 22:40 298 13 gusting 16 3.3
2020-Jan-19 22:30 351 5 gusting 19 3.3
2020-Jan-19 22:20 309 9 gusting 17 3.6
2020-Jan-19 22:10 308 7 gusting 17 3.7
2020-Jan-19 22:00 330 10 gusting 17 3.8
2020-Jan-19 21:50 343 8 gusting 16 3.9
2020-Jan-19 21:40 279 9 gusting 19 4.1
2020-Jan-19 21:30 074 6 gusting 12 4.4
2020-Jan-19 21:20 017 9 gusting 17 4.7
2020-Jan-19 21:10 336 10 gusting 13 5.0
2020-Jan-19 21:00 336 3 gusting 17 5.0
2020-Jan-19 20:50 360 6 gusting 19 4.9
2020-Jan-19 20:40 305 6 gusting 17 5.3
2020-Jan-19 20:30 284 8 gusting 13 5.7
2020-Jan-19 20:20 347 8 gusting 13 5.8
2020-Jan-19 20:10 287 1 gusting 19 5.7
2020-Jan-19 20:00 274 9 gusting 15 5.9
2020-Jan-19 19:50 304 10 gusting 18 5.8
2020-Jan-19 19:40 213 4 gusting 13 5.9
2020-Jan-19 19:30 329 2 gusting 13 5.4
2020-Jan-19 19:20 299 9 gusting 14 5.2
2020-Jan-19 19:10 297 7 gusting 12 5.1
2020-Jan-19 19:00 344 4 gusting 11 5.2
2020-Jan-19 18:50 338 8 gusting 12 5.1
2020-Jan-19 18:40 302 10 gusting 14 5.1
2020-Jan-19 18:30 281 6 gusting 17 5.2
2020-Jan-19 18:20 321 8 gusting 13 5.6
2020-Jan-19 18:10 292 11 gusting 13 5.6
2020-Jan-19 18:00 287 2 gusting 11 5.3
2020-Jan-19 17:50 337 1 gusting 13 5.4
2020-Jan-19 17:40 328 12 gusting 17 5.6
2020-Jan-19 17:30 319 8 gusting 15 5.7
2020-Jan-19 17:20 321 4 gusting 15 5.7
2020-Jan-19 17:10 315 5 gusting 19 6.0
2020-Jan-19 17:00 309 15 gusting 17 6.1
2020-Jan-19 16:50 355 10 gusting 18 6.8
2020-Jan-19 16:40 264 6 gusting 16 6.4
2020-Jan-19 16:30 265 8 gusting 15 6.4
2020-Jan-19 16:20 270 6 gusting 17 6.4
2020-Jan-19 16:10 227 6 gusting 19 6.4
2020-Jan-19 16:00 291 11 gusting 19 6.5
2020-Jan-19 15:50 300 9 gusting 14 6.6
2020-Jan-19 15:40 285 5 gusting 19 6.3
2020-Jan-19 15:30 325 15 gusting 18 6.4
2020-Jan-19 15:20 296 10 gusting 19 6.3
2020-Jan-19 15:00 288 7 gusting 15 6.4
2020-Jan-19 14:40 310 7 gusting 16 6.2
2020-Jan-19 14:30 295 7 gusting 15 6.3
2020-Jan-19 14:10 300 10 gusting 12 6.0
2020-Jan-19 14:00 310 10 gusting 16 5.6
2020-Jan-19 13:50 317 7 gusting 13 5.0
2020-Jan-19 13:40 281 5 gusting 12 4.5
2020-Jan-19 13:30 269 6 gusting 10 4.3
2020-Jan-19 13:10 290 4 gusting 15 4.0
2020-Jan-19 13:00 278 7 gusting 15 3.8
2020-Jan-19 12:40 275 2 gusting 12 3.5
2020-Jan-19 12:30 274 3.3
2020-Jan-19 12:10 237 3 gusting 11 3.6
2020-Jan-19 12:00 291 3 gusting 10 3.7
2020-Jan-19 11:50 221 4 gusting 9 3.7
2020-Jan-19 11:30 291 6 gusting 12 3.3
2020-Jan-19 11:20 267 6 gusting 13 3.3
2020-Jan-19 11:10 271 5 gusting 11 3.2
2020-Jan-19 11:00 247 4 gusting 9 3.2
2020-Jan-19 10:50 216 2 gusting 8 3.2
2020-Jan-19 10:40 246 1 gusting 8 3.2
2020-Jan-19 10:30 232 1 gusting 7 3.2
2020-Jan-19 10:20 242 4 gusting 6 3.3
2020-Jan-19 10:00 241 3 gusting 7 3.1
2020-Jan-19 09:50 265 1 gusting 7 3.1
2020-Jan-19 09:40 288 7 gusting 10 3.1
2020-Jan-19 09:30 271 2 gusting 9 3.1
2020-Jan-19 09:10 240 5 gusting 11 3.1
2020-Jan-19 09:00 236 7 gusting 9 3.2
2020-Jan-19 08:40 253 3 gusting 8 3.2
2020-Jan-19 08:30 246 4 gusting 10 3.2
2020-Jan-19 08:20 233 2 gusting 12 3.2
2020-Jan-19 08:10 252 0 gusting 11 3.2
2020-Jan-19 08:00 227 3 gusting 10 3.2
2020-Jan-19 07:50 236 1 gusting 9 3.3
2020-Jan-19 07:30 209 3 gusting 9 3.3
2020-Jan-19 07:10 230 3 gusting 7 3.4
2020-Jan-19 07:00 248 6 gusting 9 3.5
2020-Jan-19 06:40 258 5 gusting 10 3.4
2020-Jan-19 06:30 259 5 gusting 13 3.2
2020-Jan-19 06:20 213 6 gusting 13 3.2
2020-Jan-19 06:10 221 5 gusting 16 3.2
2020-Jan-19 06:00 223 6 gusting 14 3.1
2020-Jan-19 05:50 205 6 gusting 14 3.1
2020-Jan-19 05:40 226 1 gusting 13 3.1
2020-Jan-19 05:30 221 5 gusting 13 3.1
2020-Jan-19 05:10 237 6 gusting 12 3.0
2020-Jan-19 05:00 208 5 gusting 18 3.1
2020-Jan-19 04:30 217 8 gusting 20 3.1
2020-Jan-19 04:20 247 11 gusting 18 3.1
2020-Jan-19 04:10 205 7 gusting 19 3.1
2020-Jan-19 04:00 213 4 gusting 19 3.1
2020-Jan-19 03:50 246 2 gusting 19 3.2
2020-Jan-19 03:30 191 10 gusting 21 3.6
2020-Jan-19 03:20 194 5 gusting 20 3.8
2020-Jan-19 03:10 170 17 gusting 19 4.1
2020-Jan-19 03:00 169 8 gusting 14 4.1
2020-Jan-19 02:50 187 5 gusting 12 4.0
2020-Jan-19 02:30 156 6 gusting 11 3.6
2020-Jan-19 02:20 186 4 gusting 8 3.6
2020-Jan-19 02:10 188 4 gusting 11 3.7
2020-Jan-19 02:00 194 5 gusting 10 3.7
2020-Jan-19 01:50 200 5 gusting 8 3.6
2020-Jan-19 01:30 180 5 gusting 8 3.1
2020-Jan-19 01:20 206 6 gusting 10 2.8
2020-Jan-19 01:10 173 1 gusting 11 2.6
2020-Jan-19 01:00 173 6 gusting 10 2.3
2020-Jan-19 00:50 167 3 gusting 6 1.9
2020-Jan-19 00:30 161 1 gusting 6 1.3
2020-Jan-19 00:20 197 7 gusting 7 1.1
2020-Jan-19 00:10 186 2 gusting 7 0.8
2020-Jan-19 00:00 171 4 gusting 9 0.7
2020-Jan-18 23:50 146 4 gusting 10 0.7
2020-Jan-18 23:30 160 6 gusting 11 0.6
2020-Jan-18 23:20 183 7 gusting 13 0.6
2020-Jan-18 23:00 153 9 gusting 13 0.2
2020-Jan-18 22:50 151 4 gusting 6 -1.3
2020-Jan-18 22:30 131 3 gusting 6 -2.0
2020-Jan-18 22:20 121 4 gusting 7 -2.2
2020-Jan-18 22:10 097 5 gusting 7 -2.2
2020-Jan-18 22:00 089 6 gusting 6 -2.4